Location: Emblem
(62.4273°N, 6.4710°E)
Time: 10:57:01
(UTC+01:00)

S-56A Canister/Altair - All Passes

Search period start: 28 January 2023 00:00
Search period end: 07 February 2023 00:00
Orbit: 638 x 2493 km, 38.9° (Epoch: 26 January)

Date Brightness Start Highest point End Pass type
(mag) Time Alt. Az. Time Alt. Az. Time Alt. Az.
28 Jan - 16:06:27 10° SSW 16:09:42 13° S 16:13:23 10° SSE daylight
28 Jan - 18:10:52 10° SSW 18:11:57 10° SSW 18:13:05 10° SSW visible
29 Jan - 15:34:39 10° SSW 15:37:05 12° S 15:39:44 10° SSE daylight
30 Jan - 15:03:26 10° S 15:04:28 10° S 15:05:35 10° SSE daylight
